Location: Unspecified
(0.0000°N, 0.0000°E)
Time: 06:42:26
(UTC+00:00)

Transit 4A - Pass Details

Date: 08 October 2023
Orbit: 864 x 979 km, 66.8° (Epoch: 05 December)

Event Time Altitude Azimuth Distance (km) Brightness Sun altitude
Rises 19:02:50 0° 355° (N) 3,563 10.9 -18.7°
Reaches altitude 10° 19:05:34 10° 3° (N) 2,604 10.1 -19.4°
Maximum altitude 19:11:07 38° 70° (ENE) 1,335 8.2 -20.8°
Enters shadow 19:11:09 38° 71° (ENE) 1,335 8.2 -20.8°
Drops below altitude 10° 19:16:32 10° 137° (SE) 2,543 - -22.1°
Sets 19:19:09 0° 145° (SE) 3,471 - -22.8°
